User: anonymous
Location: Unspecified
(0.0000°N, 0.0000°E)
Time: 01:29:37
(UTC+00:00)
Language:

WGS F2 (USA 204) - Orbit

View from above orbital plane
View from above orbital plane
View from above satellite
View from above satellite

Ground track
Ground track

The orbit data is extracted from the following two-line orbital elements,

1 34713U 09017A   14138.12228396 0.00000000  00000-0  00000-0 0    08
2 34713   0.0160 339.8791 0003453 203.4299 156.5660  1.00270000    00
Epoch (UTC): 18 May 2014 02:56:05
Eccentricity: 0.0003453
inclination: 0.0160°
perigee height: 35772 km
apogee height: 35801 km
right ascension of ascending node: 339.8791°
argument of perigee: 203.4299°
revolutions per day: 1.00270000
mean anomaly at epoch: 156.5660°
orbit number at epoch: 0

The dashed part of the orbit path shows where the satellite is in the earth's shadow,  

DLR